EW8838 Weather Reports


time (UTC)temp
C
wind
direction
speed
KPH
gust
KPH
rain 1hr
cm
rain 24hr
cm
rain mn
cm
humidity
%
barometer
mb
20260506084122 12 301 3.2 8.0 0.00 0.18 0.00 88 1021.1
20260506083143 12 245 3.2 8.0 0.00 0.18 0.00 89 1021.1
20260506082122 12 309 3.2 8.0 0.00 0.18 0.00 89 1021.2
20260506081123 12 276 4.8 11.3 0.00 0.18 0.00 89 1021.2
20260506080122 12 259 3.2 6.4 0.00 0.18 0.00 89 1021.2
20260506073143 12 262 3.2 6.4 0.00 0.25 0.00 89 1020.8
20260506072122 12 261 3.2 9.7 0.00 0.25 0.00 89 1020.8
20260506071122 12 259 4.8 9.7 0.00 0.25 0.00 89 1020.8
20260506070122 12 261 3.2 9.7 0.00 0.25 0.00 89 1020.7
20260506062122 12 261 3.2 6.4 0.00 0.28 0.25 89 1020.5
20260506061122 12 260 3.2 9.7 0.00 0.28 0.25 89 1020.4
20260506060123 12 255 3.2 8.0 0.00 0.28 0.25 89 1020.4
20260506051123 13 238 3.2 6.4 0.00 0.28 0.25 89 1020.3
20260506050124 13 239 1.6 4.8 0.00 0.28 0.25 89 1020.3
20260506045124 13 225 3.2 8.0 0.00 0.28 0.25 89 1020.1
20260506044123 13 222 1.6 8.0 0.00 0.28 0.25 89 1020.0
20260506043122 13 219 1.6 4.8 0.00 0.28 0.25 89 1020.0
20260506042122 13 218 3.2 6.4 0.00 0.28 0.25 89 1019.9
20260506041122 13 212 1.6 6.4 0.00 0.28 0.25 89 1019.7
20260506040123 13 213 1.6 4.8 0.00 0.28 0.25 88 1019.6
20260506035122 13 173 1.6 6.4 0.00 0.28 0.25 88 1019.6
20260506034123 13 160 1.6 6.4 0.00 0.28 0.25 88 1019.3
20260506033122 13 198 3.2 9.7 0.00 0.28 0.25 88 1019.2
20260506032123 13 235 3.2 8.0 0.00 0.28 0.25 87 1019.1
20260506031122 13 231 3.2 4.8 0.00 0.28 0.25 87 1018.9
20260506030122 13 240 3.2 8.0 0.00 0.28 0.25 87 1018.9
20260506025123 13 244 3.2 11.3 0.00 0.28 0.25 86 1018.8
20260506024143 13 248 4.8 12.9 0.00 0.28 0.25 86 1018.7
20260506023123 13 232 3.2 9.7 0.00 0.28 0.25 85 1018.6
20260506022123 13 231 4.8 12.9 0.00 0.28 0.25 85 1018.6
20260506021122 13 223 3.2 11.3 0.00 0.28 0.25 84 1018.6
20260506020122 13 239 6.4 16.1 0.00 0.28 0.25 84 1018.8
20260506015144 14 198 4.8 11.3 0.00 0.28 0.25 83 1018.7
20260506014143 14 238 4.8 11.3 0.00 0.28 0.25 82 1018.7
20260506013123 15 243 4.8 12.9 0.00 0.28 0.25 82 1018.8
20260506012123 15 234 4.8 11.3 0.00 0.28 0.25 81 1018.6
20260506011122 15 251 6.4 14.5 0.00 0.28 0.25 82 1018.6
20260506010122 15 216 4.8 16.1 0.00 0.28 0.25 81 1018.5
20260506005122 15 240 6.4 14.5 0.00 0.28 0.25 81 1018.5
20260506004122 15 243 4.8 12.9 0.00 0.28 0.25 80 1018.3
20260506003124 15 196 6.4 16.1 0.00 0.28 0.25 81 1018.2
20260506002122 15 223 4.8 14.5 0.00 0.28 0.25 81 1018.2
20260506001144 15 255 8.0 19.3 0.00 0.28 0.25 81 1018.2
20260506000123 15 223 4.8 12.9 0.00 0.28 0.25 81 1018.2
20260505235123 15 185 4.8 14.5 0.00 0.28 0.25 80 1018.3
20260505234123 15 215 3.2 9.7 0.00 0.28 0.25 80 1018.4
20260505233123 15 219 4.8 9.7 0.00 0.28 0.25 80 1018.4
20260505232123 15 235 4.8 14.5 0.00 0.28 0.25 80 1018.4
20260505231122 15 189 4.8 14.5 0.00 0.28 0.25 80 1018.5
20260505230123 15 257 8.0 19.3 0.00 0.28 0.25 80 1018.4
20260505225122 15 234 6.4 16.1 0.00 0.28 0.25 79 1018.3
20260505224144 15 257 8.0 22.5 0.00 0.28 0.25 79 1018.3
20260505223122 15 257 9.7 17.7 0.00 0.28 0.25 80 1018.4
20260505222123 15 235 6.4 12.9 0.00 0.28 0.25 80 1018.4
20260505221122 15 271 9.7 16.1 0.00 0.28 0.25 80 1018.4
20260505220123 15 265 9.7 19.3 0.00 0.28 0.25 79 1018.3
20260505215123 15 269 9.7 17.7 0.00 0.28 0.25 79 1018.5
20260505214123 15 260 6.4 16.1 0.00 0.28 0.25 80 1018.4
20260505213122 15 270 8.0 16.1 0.00 0.28 0.25 80 1018.5
20260505212122 15 275 8.0 16.1 0.00 0.28 0.25 80 1018.5
20260505211122 15 270 11.3 16.1 0.00 0.28 0.25 81 1018.6
20260505210143 15 301 9.7 17.7 0.00 0.28 0.25 80 1018.5
20260505205123 15 272 9.7 19.3 0.00 0.28 0.25 79 1018.3
20260505204123 15 261 9.7 16.1 0.00 0.28 0.25 78 1018.4
20260505203123 15 244 6.4 19.3 0.00 0.28 0.25 79 1018.4
20260505202122 14 270 9.7 16.1 0.00 0.28 0.25 80 1018.4
20260505201122 15 270 9.7 17.7 0.00 0.28 0.25 82 1018.5
20260505200122 14 256 9.7 19.3 0.00 0.28 0.25 82 1018.4
20260505195122 14 252 8.0 17.7 0.00 0.28 0.25 84 1018.6
20260505194122 14 245 8.0 14.5 0.00 0.28 0.25 85 1018.6
20260505193123 13 238 6.4 14.5 0.00 0.28 0.25 87 1018.6
20260505192143 13 230 6.4 12.9 0.00 0.28 0.25 88 1018.6
20260505191122 13 252 8.0 16.1 0.00 0.28 0.25 88 1018.6
20260505190123 13 254 6.4 12.9 0.00 0.28 0.25 89 1018.5
20260505185123 13 294 4.8 9.7 0.00 0.28 0.25 90 1018.4
20260505184143 13 286 6.4 14.5 0.00 0.28 0.25 91 1018.5
20260505183123 13 317 8.0 16.1 0.00 0.28 0.25 91 1018.5
20260505182122 12 257 8.0 16.1 0.00 0.28 0.25 92 1018.4
20260505181123 12 272 8.0 14.5 0.00 0.28 0.25 92 1018.2
20260505180123 12 248 6.4 14.5 0.00 0.28 0.25 93 1018.2
20260505175143 12 266 6.4 14.5 0.00 0.28 0.25 92 1018.1
20260505174122 12 265 8.0 14.5 0.00 0.28 0.25 93 1018.1
20260505173123 12 315 6.4 12.9 0.00 0.28 0.25 93 1018.1
20260505172144 12 300 8.0 16.1 0.00 0.28 0.25 93 1017.9
20260505171122 12 301 4.8 11.3 0.00 0.28 0.25 93 1017.8
20260505170144 12 301 8.0 16.1 0.00 0.28 0.25 93 1017.7
20260505165122 12 264 4.8 12.9 0.00 0.28 0.25 93 1017.8
20260505164123 12 227 4.8 9.7 0.00 0.28 0.25 93 1017.8
20260505163144 12 203 4.8 11.3 0.00 0.28 0.25 93 1017.7
20260505162122 11 236 3.2 9.7 0.00 0.28 0.25 93 1017.7
20260505161122 11 247 1.6 6.4 0.00 0.28 0.25 93 1017.6
20260505160143 11 250 3.2 8.0 0.00 0.28 0.25 92 1017.6
20260505153123 11 224 3.2 8.0 0.00 0.25 0.25 93 1017.4
20260505152122 11 224 3.2 11.3 0.00 0.25 0.25 93 1017.3
20260505151123 11 236 1.6 4.8 0.00 0.25 0.25 93 1017.2
20260505150123 11 261 1.6 9.7 0.00 0.25 0.25 93 1017.0
20260505140122 10 271 0.0 3.2 0.00 0.25 0.25 93 1016.9
20260505130123 10 267 1.6 3.2 0.00 0.25 0.25 92 1016.6
20260505124122 10 267 0.0 3.2 0.00 0.25 0.25 92 1016.7
20260505123123 10 268 0.0 3.2 0.00 0.25 0.25 92 1016.7
20260505122122 10 267 0.0 1.6 0.00 0.25 0.25 92 1016.7
20260505121143 10 267 0.0 3.2 0.00 0.25 0.25 92 1016.5
20260505120123 10 269 0.0 0.0 0.00 0.25 0.25 92 1016.7
20260505115144 10 269 0.0 0.0 0.00 0.25 0.25 92 1016.6
20260505114122 10 269 1.6 3.2 0.00 0.25 0.25 92 1016.7
20260505113122 10 269 1.6 3.2 0.00 0.25 0.25 92 1016.9
20260505112143 10 269 0.0 1.6 0.00 0.25 0.25 92 1016.7
20260505111123 10 269 1.6 3.2 0.00 0.25 0.25 92 1016.8
20260505110144 10 269 0.0 0.0 0.00 0.25 0.25 92 1016.8
20260505102122 10 268 0.0 0.0 0.00 0.25 0.25 92 1016.7
20260505101123 10 269 0.0 3.2 0.00 0.25 0.25 92 1016.8
20260505100122 10 269 0.0 3.2 0.00 0.25 0.25 92 1016.8
20260505095122 10 269 1.6 3.2 0.03 0.25 0.25 91 1016.8
20260505094122 10 270 1.6 3.2 0.05 0.25 0.25 91 1016.9
20260505093123 10 271 1.6 6.4 0.05 0.25 0.23 91 1017.1
20260505092122 10 269 0.0 4.8 0.08 0.25 0.23 91 1017.1
20260505091122 10 269 0.0 0.0 0.13 0.25 0.23 91 1017.3
20260505090143 10 269 0.0 3.2 0.13 0.25 0.23 90 1017.4
20260505085122 10 269 0.0 1.6 0.13 0.23 0.18 90 1017.3